Wind_Gust
26 25 26 25 24 25 24 24 24 24 23 23 22 21 21 21 21 21 20 20 19 19 19 19 19 19 18 17 17 14 15 6 4 3 3 13 10 7 10 11 8 6 6 4 8 6 5 7 11 13 11 7 7 4 6 4 7 6 6 9 6 12 7 11 11 17 23 27 17 16 19 25 19 13 17 20 18 19 17 20 18 26 22 22 23 20 19 20
25 25 26 25 25 24 24 24 23 23 23 23 22 21 21 21 20 20 20 19 19 19 18 17 18 17 17 15 16 15 12 3 6 5 16 5 6 8 9 10 8 6 6 8 7 5 6 8 7 11 9 6 4 4 2 7 4 7 6 6 13 10 13 10 11 19 17 24 26 22 20 23 22 19 17 20 9 16 21 15 15 23 21 22 21 19 20 18
24 26 25 25 24 25 24 23 24 24 22 22 21 21 20 20 20 20 21 19 18 18 17 17 17 17 16 14 13 12 9 5 3 4 9 9 8 8 11 9 7 5 3 4 1 6 5 2 4 7 5 5 9 7 5 11 6 8 7 7 13 13 8 7 18 19 18 16 21 21 16 14 16 13 11 18 14 11 21 23 15 24 23 21 20 20 19 17
24 26 25 25 25 25 24 23 23 22 22 22 21 20 20 20 20 21 20 19 17 17 16 16 15 14 15 13 11 11 5 4 6 6 6 10 9 10 9 9 9 7 7 6 4 4 4 7 7 7 4 8 9 4 6 10 6 7 7 11 14 8 9 11 13 16 19 20 19 17 11 16 14 11 19 18 18 7 9 11 26 28 27 23 22 20 20 18
25 25 25 24 25 25 24 24 23 22 22 23 21 21 21 20 21 20 19 19 18 17 16 15 13 12 10 10 12 5 7 13 9 5 8 11 11 10 11 11 9 6 3 6 7 7 10 7 5 6 8 9 5 3 10 7 11 7 11 13 15 6 6 11 15 14 17 16 19 14 18 16 16 16 19 17 19 15 18 13 16 23 25 27 25 22 19 18
24 25 24 24 25 25 24 25 25 24 23 22 22 21 21 19 19 19 19 18 17 17 17 16 15 13 9 7 8 3 9 9 7 7 7 12 12 12 12 13 9 7 5 4 4 6 7 5 7 5 4 5 6 13 11 10 7 13 13 10 13 10 10 6 5 12 21 18 17 18 12 15 12 10 6 9 9 9 10 13 17 20 22 22 20 21 19 17
24 25 25 25 26 26 25 25 25 24 23 23 22 20 19 18 18 18 18 17 16 16 15 15 14 14 12 6 4 8 6 13 4 13 10 11 12 11 13 9 10 6 4 5 4 8 4 6 4 6 6 4 6 14 15 6 11 16 23 9 13 9 13 11 10 14 17 20 16 16 11 18 22 17 5 15 8 15 15 17 19 20 21 23 23 21 22 20
25 26 25 26 26 25 24 25 25 24 24 23 23 20 19 18 17 18 17 17 16 15 14 13 12 12 12 4 6 10 4 10 15 8 11 11 11 11 13 7 7 5 3 8 3 3 4 6 10 5 7 6 9 9 7 7 8 16 18 8 10 6 10 10 10 18 19 21 16 17 20 12 18 19 14 10 13 17 16 16 19 19 20 18 18 19 19 17
26 25 25 27 27 26 26 25 25 25 24 24 22 22 21 18 17 17 18 17 17 16 13 11 11 10 7 4 7 8 8 10 9 8 8 10 12 9 10 6 7 5 5 4 7 5 3 7 7 8 4 5 4 11 5 5 14 13 16 6 6 5 8 10 12 19 19 19 23 25 20 16 22 25 20 8 9 13 16 17 19 19 18 18 19 20 21 22
26 25 28 28 27 26 27 26 25 25 24 23 24 23 22 19 16 16 17 17 17 15 13 9 8 8 4 6 7 11 10 8 7 8 10 11 10 10 7 9 9 6 3 9 5 8 9 14 7 7 5 4 4 10 8 8 8 5 9 11 8 6 8 12 20 19 17 21 24 29 19 23 9 9 11 7 8 12 16 17 17 19 20 17 17 19 18 21
25 28 28 28 27 26 26 26 26 25 24 25 25 24 23 20 17 17 16 16 16 15 11 8 7 6 5 4 8 6 11 6 4 8 10 11 11 8 8 8 11 7 10 10 7 15 13 12 10 7 6 7 9 12 12 6 7 8 7 4 7 11 8 10 16 17 21 12 24 30 18 4 9 7 22 21 14 15 20 19 20 17 16 16 14 15 14 15
26 28 28 27 28 27 27 27 26 25 25 25 24 23 23 22 18 17 16 15 15 12 9 7 4 4 4 5 6 11 7 9 6 8 10 10 8 12 10 11 12 10 8 7 10 10 12 8 7 8 8 6 10 8 7 7 10 8 4 8 8 11 15 11 19 13 15 18 22 24 17 9 8 14 19 22 16 14 18 21 17 15 14 13 13 12 11 13
27 28 28 28 28 28 28 27 27 27 26 24 23 25 23 21 20 16 15 13 13 12 8 7 4 4 5 12 11 14 7 8 11 10 8 7 9 9 10 7 10 10 9 6 9 10 9 8 4 7 5 4 7 9 13 8 7 6 7 4 10 13 13 16 12 16 21 30 26 17 11 12 11 17 19 18 20 19 21 22 18 14 13 13 12 12 12 12
28 28 29 28 28 28 27 27 27 27 26 25 24 23 21 22 19 16 14 13 10 10 8 5 3 4 5 11 15 8 8 7 5 7 12 9 4 12 10 9 9 8 6 9 11 11 7 7 7 4 3 3 8 6 13 17 8 8 6 10 5 7 12 12 10 11 21 27 25 10 17 12 9 14 17 18 21 26 24 21 16 15 12 12 11 12 13 15
28 29 28 27 28 28 28 28 28 27 27 27 26 26 23 20 17 14 11 9 10 10 7 4 2 5 9 18 10 13 9 6 7 9 10 7 8 9 11 11 14 12 11 9 8 4 8 7 5 6 8 3 4 7 13 13 11 7 13 11 11 6 14 15 12 16 15 19 13 20 9 14 18 18 18 18 19 19 22 19 16 13 13 12 10 14 13 16
29 29 29 26 27 28 28 28 28 27 28 30 27 28 28 21 15 13 9 8 9 12 8 2 3 5 7 15 7 14 7 3 11 13 10 10 8 11 11 7 9 8 7 10 8 6 4 5 9 7 7 10 13 6 9 16 13 12 7 8 8 6 11 18 9 13 22 30 9 14 17 14 8 15 16 15 17 19 18 18 16 14 15 15 14 12 12 13
30 30 28 27 26 27 28 28 27 29 29 30 31 31 24 15 9 9 14 8 11 8 6 7 4 3 4 10 8 7 9 11 6 4 4 8 10 11 5 7 7 11 10 7 8 4 8 4 6 6 10 8 3 8 10 11 11 11 7 10 6 5 6 11 18 7 18 25 14 19 23 21 11 25 18 16 17 16 17 19 16 15 14 13 12 12 13 14
29 29 28 28 26 26 27 28 28 28 29 31 28 22 26 21 13 17 13 10 8 10 7 4 4 7 16 8 8 8 7 11 10 10 5 4 10 6 4 7 5 6 7 11 9 6 6 5 11 5 7 8 6 8 12 9 7 7 11 9 13 5 6 14 15 9 12 7 19 10 15 9 14 21 21 18 20 19 21 22 20 18 15 13 12 13 12 14
29 28 28 27 27 27 27 28 28 27 27 30 24 19 16 12 5 4 10 5 6 9 9 5 7 8 11 15 12 13 11 11 6 3 5 4 5 5 5 3 6 4 8 9 11 4 8 6 11 9 9 13 11 8 11 13 7 9 9 7 5 6 7 13 11 10 14 11 15 15 19 16 19 21 21 18 17 18 18 14 15 15 14 12 13 13 12 15
28 28 28 28 28 28 28 26 27 26 24 21 22 15 16 20 21 13 15 9 5 8 7 7 7 9 14 17 16 11 7 7 5 6 5 4 6 5 5 4 5 8 5 7 9 5 6 6 6 9 12 13 12 9 12 12 11 9 6 5 6 6 11 10 11 9 14 16 6 8 21 24 24 26 24 20 15 14 15 16 16 15 15 14 14 14 14 14
28 29 29 29 28 29 26 27 26 25 19 7 7 15 12 9 7 15 18 21 16 10 12 16 14 13 17 13 8 10 13 8 3 5 8 4 7 5 10 5 10 7 8 9 10 6 10 9 11 14 14 13 10 8 5 5 6 6 7 6 11 3 8 7 8 12 12 13 5 14 18 20 24 20 20 17 17 18 20 19 16 17 14 13 14 16 16 17
27 27 28 29 30 28 28 27 27 24 13 5 10 14 8 5 6 10 6 21 16 11 13 18 9 12 14 21 22 11 6 13 14 11 10 4 4 8 7 8 4 8 6 5 8 13 7 9 15 13 14 9 7 6 9 7 8 7 7 6 9 12 7 12 10 11 11 15 3 16 20 18 22 22 20 23 27 24 22 25 26 24 19 16 16 15 16 15
26 28 28 29 30 29 29 28 26 20 11 12 13 7 11 12 9 8 8 9 20 11 9 10 7 13 15 12 12 12 10 10 15 10 10 6 2 7 7 5 5 7 9 6 10 3 6 10 19 15 6 5 8 9 11 11 10 11 12 13 11 8 12 11 11 8 15 11 13 10 19 14 11 11 24 18 13 10 10 10 12 11 18 19 20 20 18 15
25 28 28 29 31 29 30 29 24 9 13 4 4 10 10 7 9 9 7 10 14 15 9 11 7 7 10 8 13 12 10 9 7 10 6 10 8 4 6 6 5 5 7 6 8 11 14 9 3 8 8 9 7 7 12 14 12 6 9 8 10 6 5 8 8 8 4 12 12 16 16 11 11 16 13 12 12 15 12 9 9 12 13 14 13 13 17 20
26 27 27 29 30 33 31 23 10 8 12 6 5 16 11 8 7 2 7 13 8 17 6 5 9 8 11 4 6 11 5 4 10 6 7 9 6 6 4 5 5 5 6 10 8 10 10 12 4 6 7 8 10 10 7 15 12 10 6 9 8 6 8 7 6 11 17 12 9 13 12 10 11 17 22 12 17 17 15 15 14 14 13 22 19 17 16 16
25 26 26 27 28 33 28 6 6 12 9 5 6 16 15 12 10 4 14 10 9 13 7 7 8 11 8 6 6 7 7 9 8 10 7 10 9 6 5 6 4 6 7 8 4 8 8 5 3 5 8 6 8 6 5 8 10 10 9 8 7 9 7 7 9 11 10 9 10 7 13 13 9 15 15 11 13 16 11 16 17 16 19 20 17 20 24 24
24 24 26 25 26 29 14 5 8 9 4 7 14 17 14 13 9 6 10 14 10 10 10 6 7 14 11 5 10 7 10 12 9 2 3 5 7 4 5 8 8 5 4 7 16 12 7 7 8 9 7 6 6 6 7 12 14 7 6 8 6 8 7 6 9 8 7 6 7 9 10 11 8 17 8 14 20 17 15 17 17 19 20 22 24 23 21 25
24 25 25 24 25 16 4 11 13 8 8 8 13 14 13 11 5 10 14 11 15 5 4 7 9 6 4 4 8 10 10 6 6 8 5 6 8 7 6 6 8 9 7 8 5 14 3 5 4 5 5 6 5 9 7 8 8 10 5 10 6 4 6 7 8 7 3 5 10 11 7 11 11 13 8 16 14 12 19 23 23 20 19 21 22 25 24 21
24 25 25 21 25 15 3 3 3 8 5 12 13 13 17 6 11 13 11 8 9 10 13 9 11 3 5 4 7 3 4 5 8 7 5 3 6 9 5 7 8 5 5 6 13 13 9 10 7 7 4 8 9 6 10 11 8 6 10 11 9 8 9 7 7 9 5 9 10 9 4 12 15 11 10 4 12 20 23 23 22 22 23 25 25 22 20 18
25 23 24 21 17 4 8 4 11 9 8 12 13 15 7 7 10 8 10 10 8 7 4 8 8 8 4 7 7 3 6 7 8 6 5 10 8 5 5 6 6 4 7 6 4 14 11 9 10 8 10 10 8 7 7 7 4 8 9 7 9 13 9 8 12 6 11 7 13 8 5 8 13 14 18 21 21 27 21 13 14 16 17 19 21 22 22 21
23 22 20 16 9 6 7 13 11 4 9 10 14 8 7 17 12 9 5 16 6 11 5 4 11 5 9 6 8 6 4 4 4 10 6 4 5 7 7 7 14 12 7 9 12 12 11 8 6 9 8 6 5 7 6 5 4 9 8 6 10 11 16 12 10 11 7 13 10 8 4 5 11 12 15 22 12 17 23 23 23 22 24 26 24 24 20 19
23 24 20 13 10 4 7 7 2 8 11 13 9 9 11 7 12 10 15 8 12 11 5 7 6 8 8 4 6 8 11 3 5 11 13 12 5 7 7 10 6 6 11 5 11 11 11 10 6 11 6 11 5 7 10 12 11 14 10 15 10 11 15 11 12 10 9 11 4 4 5 5 11 18 22 25 24 20 21 27 28 27 27 25 23 22 19 17
25 25 26 20 10 7 13 16 11 12 10 10 9 10 12 10 11 12 11 7 12 5 7 6 7 7 5 3 7 7 4 11 6 7 10 6 8 10 7 10 12 15 11 9 4 8 13 9 8 8 7 4 11 12 6 6 6 9 9 9 10 6 7 7 11 7 11 14 9 3 5 9 11 16 12 21 24 24 26 22 23 25 26 25 24 20 16 15
26 24 20 9 16 17 8 3 7 5 9 8 11 12 15 7 14 10 5 8 7 5 4 8 11 4 10 19 11 7 8 7 6 12 10 10 7 9 11 8 8 4 8 4 10 7 5 16 11 5 6 6 9 14 19 14 10 9 7 12 14 15 13 11 10 11 11 14 10 7 9 13 3 9 4 16 14 12 21 23 19 22 24 24 21 16 13 12
30 25 13 10 11 19 22 13 10 5 8 10 16 12 12 18 9 8 7 7 8 5 6 8 5 3 5 7 5 6 10 11 10 5 10 11 12 11 10 9 8 11 6 8 9 7 9 16 15 8 7 8 8 5 8 10 10 4 6 12 12 10 15 10 15 11 8 7 11 8 13 11 14 7 9 6 10 10 9 13 11 14 11 7 9 12 14 15
18 10 5 12 7 8 13 14 9 6 10 13 11 9 15 18 9 8 8 7 4 9 14 11 5 3 5 6 7 5 9 9 8 9 6 10 9 15 9 9 14 19 15 19 13 9 6 10 6 11 7 3 7 7 6 9 10 9 6 7 8 10 17 12 6 3 4 10 14 6 15 14 16 11 5 10 6 10 8 7 8 12 9 8 12 14 15 16
14 17 10 6 8 6 11 14 15 13 14 14 11 13 18 14 11 9 7 4 7 6 6 7 13 7 5 8 5 8 8 9 5 6 11 4 11 9 8 8 7 9 16 20 9 12 12 12 8 5 4 7 5 5 5 6 11 17 7 13 7 6 11 11 10 9 7 8 18 4 9 11 10 17 10 9 7 11 9 7 12 10 10 14 17 18 19 18
15 12 12 12 13 12 14 15 14 10 12 11 13 11 6 9 7 7 4 9 8 5 5 6 15 4 7 5 8 4 8 6 11 9 4 5 13 6 4 7 5 12 16 4 12 8 11 13 11 6 5 8 9 8 9 4 4 10 8 10 8 11 8 10 11 8 7 11 13 8 6 10 9 14 8 7 7 10 11 7 6 8 12 18 19 20 18 15
9 7 18 11 7 19 15 14 9 10 9 12 13 12 13 15 6 6 8 8 7 7 7 10 12 6 5 4 6 4 4 8 7 5 6 9 11 6 5 7 3 6 7 12 11 7 6 11 15 8 5 5 8 10 11 8 11 6 7 7 3 12 8 8 15 10 10 10 5 12 4 15 15 14 11 10 10 12 11 8 13 16 18 18 17 17 16 14
6 9 13 4 12 13 16 11 11 11 11 14 10 17 7 9 11 8 8 5 10 8 9 4 5 7 6 7 5 5 5 4 5 8 4 8 9 6 4 5 5 9 7 5 6 6 9 7 10 10 7 8 9 9 12 15 10 8 7 6 6 6 7 10 5 9 10 13 11 12 12 17 16 15 11 12 12 14 14 16 15 15 18 18 18 20 17 15
6 8 16 5 12 15 14 11 10 12 12 9 4 9 5 11 8 6 10 9 11 9 12 8 8 9 9 5 8 3 7 4 6 8 9 7 9 11 7 6 6 7 6 8 6 5 8 7 13 10 7 7 13 11 11 14 13 15 18 14 16 10 7 5 17 6 7 11 15 10 24 18 20 8 15 14 14 11 13 12 13 13 13 15 18 16 17 17
6 12 13 3 13 15 14 11 14 7 12 9 14 15 10 8 10 9 10 7 8 15 6 9 5 9 7 10 9 6 9 8 7 6 7 10 5 8 6 7 7 4 5 7 6 8 9 11 7 8 14 14 13 9 7 7 7 10 14 13 9 7 12 10 10 14 7 12 10 10 10 19 18 11 14 15 13 13 11 12 13 12 13 13 17 17 15 19
11 15 8 3 9 14 11 9 6 9 10 12 5 10 11 13 10 14 12 9 11 8 7 10 10 9 9 12 5 7 8 13 11 12 8 6 9 15 10 10 9 9 7 8 6 4 9 10 7 9 12 11 9 9 6 5 5 4 6 6 9 10 12 16 17 14 13 8 8 9 15 22 12 7 11 11 9 9 8 9 13 14 15 14 13 14 15 14
8 10 10 4 4 12 11 24 14 10 14 12 7 16 7 12 13 13 10 6 11 9 7 8 6 8 7 4 6 8 9 12 7 6 9 4 9 9 7 8 10 9 8 9 8 5 9 9 9 7 11 15 15 13 9 10 11 8 7 7 5 7 7 6 9 5 9 12 13 13 24 16 13 8 8 5 7 9 11 11 12 14 15 14 13 13 12 13
10 10 9 12 8 8 19 16 11 11 9 6 8 8 11 8 9 10 10 14 7 7 5 10 10 4 8 4 7 4 5 10 16 7 7 5 11 6 8 8 9 7 7 8 8 8 9 9 12 11 15 14 14 9 14 12 11 8 4 4 5 10 10 6 7 6 12 8 5 13 19 17 16 11 9 8 7 10 11 9 8 13 14 14 13 13 13 11
13 19 11 9 11 11 10 5 7 9 7 7 6 13 7 12 9 6 9 12 11 10 13 9 6 4 6 3 6 6 8 3 11 9 7 7 8 10 6 10 6 5 10 11 10 8 11 6 9 14 15 16 17 15 10 6 5 9 8 7 10 5 5 7 10 9 17 11 11 14 14 10 12 9 8 10 6 10 13 9 10 11 13 14 12 14 13 14
12 14 14 12 8 10 10 6 6 7 11 10 13 10 8 8 8 12 5 9 5 12 12 7 7 6 7 5 6 5 5 5 5 4 7 5 7 9 10 6 9 10 7 7 5 9 6 7 7 7 11 15 13 11 10 10 12 9 8 9 6 5 8 9 11 19 11 9 19 13 9 10 14 13 13 13 13 12 12 14 14 12 13 16 16 13 12 11
16 13 7 9 15 15 14 15 10 8 9 7 13 6 7 7 5 10 11 5 8 10 11 11 11 7 5 8 5 9 6 6 5 10 4 5 6 10 14 8 7 10 7 5 5 7 9 9 7 5 8 9 8 10 9 7 8 10 9 8 8 9 6 10 11 13 9 14 26 10 12 14 12 14 18 18 16 16 16 17 19 18 11 7 7 10 13 15
10 13 10 5 12 7 15 8 16 19 15 12 13 7 10 8 8 10 8 14 13 8 7 11 9 12 11 4 5 9 5 9 11 5 8 4 3 7 9 9 5 11 9 8 9 5 8 8 6 5 7 5 6 7 6 7 6 6 8 9 10 9 12 15 14 11 14 15 14 15 13 20 20 17 17 18 16 17 16 13 8 6 11 14 13 14 15 15
14 10 10 8 6 4 5 3 9 11 16 13 18 10 14 9 8 8 7 7 15 11 4 9 11 15 12 12 7 10 10 11 10 15 6 5 9 6 6 8 7 7 8 5 6 4 7 17 6 3 4 7 7 6 4 5 8 12 8 8 10 9 12 10 10 10 11 15 13 19 20 25 23 18 22 17 14 9 9 14 18 15 11 12 15 16 16 16
12 6 8 8 9 9 4 4 8 10 13 10 17 10 8 10 9 7 10 7 9 15 14 14 11 12 7 7 7 10 11 9 9 13 10 8 8 11 9 11 5 10 7 6 4 8 4 11 4 6 10 12 7 4 10 6 6 14 10 11 12 12 14 10 21 14 11 23 20 13 18 26 19 15 14 13 14 12 16 18 17 17 15 14 16 17 17 18
9 7 4 7 11 5 8 3 3 8 13 12 16 10 18 9 8 11 18 11 7 9 9 8 9 5 10 10 11 7 9 6 7 9 9 11 6 5 5 7 8 7 7 7 4 8 8 9 9 5 9 15 10 5 6 8 17 29 18 19 21 18 16 15 15 11 18 16 20 21 30 22 17 11 8 11 12 15 14 16 18 18 17 16 19 19 20 19
Wind_Speed
19 20 20 19 18 17 17 18 17 16 15 15 15 15 14 14 13 14 14 13 13 13 13 13 12 12 12 12 12 10 9 1 0 0 1 7 4 5 9 9 6 4 4 2 5 3 1 4 6 7 2 2 2 1 1 1 0 1 1 4 2 2 1 4 5 8 1 4 4 3 2 5 2 2 2 3 10 6 5 6 3 5 3 5 9 10 10 9
18 20 20 19 18 18 19 18 18 17 16 16 15 15 14 13 14 14 13 13 13 13 13 12 12 11 11 10 10 9 6 2 0 0 7 2 3 6 8 8 5 3 5 4 5 3 3 5 3 4 4 1 2 0 1 1 1 2 2 2 1 4 4 5 5 6 3 5 5 3 3 2 2 6 1 5 2 4 5 4 4 8 10 9 11 11 11 9
19 20 19 18 19 20 19 18 17 17 17 16 16 15 15 15 14 13 14 13 13 13 13 12 11 10 10 8 8 6 3 2 1 1 2 1 5 7 9 7 4 3 1 2 0 4 2 1 0 2 3 1 4 0 2 0 1 2 2 2 4 7 2 4 6 6 8 3 4 3 2 2 3 3 1 4 6 3 7 8 7 8 13 11 10 12 11 9
19 19 18 18 19 18 18 18 17 18 17 17 17 16 15 15 14 14 13 14 13 13 13 13 12 10 9 8 7 4 1 2 3 3 3 3 5 8 7 7 7 4 4 4 2 2 3 4 4 4 2 3 3 1 1 1 1 1 1 3 2 3 1 5 5 8 8 3 5 4 3 4 2 3 3 7 5 4 6 6 4 14 14 14 13 12 11 11
19 19 18 19 18 18 18 18 17 17 17 16 17 16 15 15 15 14 13 13 14 14 13 13 11 9 7 5 7 1 3 4 1 2 4 5 6 7 8 8 7 4 2 4 4 5 7 4 2 3 2 0 1 1 2 1 1 3 6 4 3 4 0 3 8 10 1 1 6 6 9 3 3 2 5 9 5 5 6 8 3 7 12 15 16 14 11 11
19 19 19 19 18 18 19 18 18 17 16 16 16 16 15 15 15 14 14 13 13 13 13 13 12 11 7 3 1 0 4 2 1 2 4 8 8 7 8 8 7 5 3 3 2 2 3 3 2 1 1 1 0 1 1 1 0 3 3 2 4 3 1 3 3 5 6 2 5 7 3 5 4 2 1 6 3 3 3 7 4 8 9 11 10 11 12 11
19 20 19 19 18 18 18 18 17 17 16 16 16 16 15 14 14 14 14 13 13 12 12 12 12 11 10 2 0 4 3 3 1 8 3 7 8 9 9 7 8 4 2 1 2 1 1 1 1 1 2 1 1 2 1 1 0 1 4 1 5 6 8 7 6 5 5 10 6 3 4 5 7 4 0 1 4 5 3 9 6 7 8 9 10 9 10 8
20 21 19 20 19 20 19 18 18 17 17 16 15 15 14 13 13 14 14 13 12 11 10 10 9 10 10 0 2 4 2 1 4 5 3 7 8 9 10 5 5 3 2 0 1 0 2 1 1 2 2 1 1 2 1 2 1 3 3 2 3 2 5 3 5 4 5 4 6 7 5 2 4 5 5 3 2 0 3 9 7 7 6 6 8 8 6 6
21 20 20 21 21 20 18 18 18 19 17 16 15 15 15 13 13 13 14 13 12 10 9 7 7 7 4 1 3 2 2 3 5 2 7 7 7 7 6 1 2 3 1 1 2 2 1 2 0 3 1 1 1 2 2 1 2 3 5 1 3 2 3 0 4 4 6 4 7 8 3 2 3 5 1 2 3 3 5 10 10 7 7 8 9 7 6 5
20 20 22 22 21 19 19 19 19 18 18 16 15 14 15 15 13 12 13 13 12 10 8 5 4 4 2 1 3 5 3 6 2 4 8 9 7 8 2 2 4 2 0 0 3 2 0 1 1 2 2 0 1 3 1 2 2 3 4 3 4 2 4 1 4 4 3 3 7 9 4 3 1 5 2 3 3 7 9 9 8 8 10 9 8 6 6 6
20 22 22 21 21 20 21 21 19 18 17 16 16 15 15 14 13 13 12 12 11 10 7 4 3 2 1 2 3 0 3 3 2 5 7 8 8 6 4 4 4 3 2 1 3 6 4 1 3 2 0 1 3 3 1 3 1 4 3 1 3 4 5 3 4 5 6 1 2 9 4 1 2 1 3 2 5 7 9 10 10 9 8 8 8 7 6 5
21 23 23 22 23 22 21 21 20 19 19 18 17 16 13 13 14 13 12 10 10 9 6 2 3 1 2 2 2 3 1 2 3 4 6 6 3 7 6 7 7 5 4 3 4 5 5 3 5 1 1 0 2 1 1 5 1 2 1 1 3 4 4 1 5 4 4 2 5 6 7 1 1 3 3 6 8 9 8 8 8 7 7 8 5 5 4 7
22 22 21 22 22 22 21 21 20 20 19 18 16 15 15 13 13 12 11 8 5 4 3 2 3 1 2 5 5 8 3 2 1 6 3 2 0 2 3 4 6 6 5 3 4 3 6 5 3 1 2 1 1 0 1 3 3 1 3 1 2 5 1 5 2 2 2 1 10 5 3 6 6 3 3 6 10 9 8 7 8 6 6 7 8 7 6 7
22 22 23 22 22 22 22 21 22 20 20 18 17 17 15 15 12 11 10 9 5 3 1 3 2 1 1 3 5 4 4 1 1 1 2 3 0 3 0 3 4 4 2 4 6 4 3 4 5 2 1 1 1 3 3 6 4 0 3 4 2 2 1 1 1 3 2 2 5 2 3 5 4 1 5 8 8 11 9 7 7 6 6 7 6 7 7 8
22 23 22 21 22 23 23 22 22 21 20 18 18 17 16 13 10 7 6 5 6 3 4 3 0 1 3 5 5 8 5 2 2 3 4 3 1 4 5 3 1 3 3 5 2 1 3 5 2 1 2 1 0 2 3 3 4 2 3 2 4 2 1 6 1 8 7 1 5 3 2 5 2 3 6 7 8 7 7 6 7 6 6 5 6 8 8 6
22 22 21 21 22 22 23 22 22 20 21 20 17 19 13 8 5 1 4 4 3 6 3 0 0 2 0 3 1 1 3 1 3 1 3 4 4 5 3 3 4 1 3 1 1 0 1 3 4 0 2 1 4 2 4 6 4 5 4 1 1 1 2 2 0 5 3 7 3 3 4 1 3 4 5 6 6 7 4 4 3 3 5 6 6 6 5 3
23 21 21 22 21 21 22 23 22 23 23 22 22 13 5 3 1 4 4 3 4 3 0 1 0 0 1 3 2 2 2 2 3 1 1 2 6 4 1 4 2 6 6 2 3 3 4 2 1 1 5 3 1 3 2 5 4 3 2 3 1 1 3 1 6 1 4 7 6 1 1 3 2 3 4 4 3 3 1 1 2 5 5 7 7 6 5 4
21 21 22 21 21 21 22 22 22 22 23 21 12 11 2 3 11 10 6 4 2 1 1 1 1 3 6 3 1 1 0 5 5 4 2 0 4 2 1 0 1 4 4 3 4 2 2 1 4 2 2 3 2 3 4 1 1 2 4 4 4 1 3 2 0 0 5 4 9 4 2 3 1 4 5 5 3 2 3 3 3 5 6 6 7 7 6 4
21 22 21 21 21 20 21 22 22 22 21 23 9 7 8 8 1 1 3 1 0 2 1 0 1 2 2 1 4 6 3 7 3 1 2 2 1 2 3 1 4 1 2 3 2 1 3 2 3 2 1 3 0 3 1 2 3 2 1 2 2 1 3 1 3 3 5 3 4 5 7 3 2 6 7 7 6 6 6 3 5 6 7 7 8 8 7 5
21 21 21 21 21 20 20 21 21 20 18 13 8 2 4 6 7 1 6 2 1 2 1 2 1 3 6 7 5 3 3 3 0 2 2 1 3 1 2 2 2 3 2 1 3 1 1 2 1 3 5 5 2 2 2 2 3 4 3 2 2 0 5 4 2 3 2 6 0 2 1 3 6 6 5 7 7 6 9 9 7 7 6 7 8 8 8 8
20 21 22 22 22 21 19 20 20 20 13 1 2 6 3 0 2 4 7 9 5 3 4 5 7 5 6 2 1 3 4 3 1 1 1 2 2 3 2 2 4 3 1 1 1 2 3 3 4 7 8 5 1 1 1 3 3 3 4 2 2 0 2 2 1 5 6 2 1 1 1 1 2 2 5 6 8 11 10 8 9 8 7 6 7 9 9 8
20 20 22 22 23 22 21 18 19 18 8 1 4 5 3 2 0 0 1 6 5 6 7 6 1 4 5 6 1 4 4 1 8 5 5 1 1 1 2 4 2 3 3 2 2 5 2 2 5 6 3 3 3 4 4 4 4 4 3 3 2 0 3 7 1 3 4 3 1 0 2 3 3 2 6 8 9 4 5 7 9 7 8 7 7 8 8 7
19 22 21 22 23 21 21 21 18 12 4 5 3 2 1 2 3 2 2 1 8 3 4 2 3 5 5 3 1 7 2 3 4 4 1 2 1 1 2 1 0 0 1 2 3 1 1 5 8 4 4 3 3 5 5 6 6 6 3 3 2 2 2 1 2 4 7 2 6 1 3 2 1 1 4 6 7 5 4 7 8 7 9 9 9 6 6 7
20 20 20 21 23 23 21 22 14 4 4 0 2 3 1 3 2 1 4 2 5 7 3 5 4 3 5 1 3 6 4 2 3 3 3 4 3 2 3 3 1 0 0 0 4 4 3 3 2 5 4 4 4 2 4 6 3 2 3 3 1 0 1 3 1 3 1 5 5 6 4 3 0 2 3 3 4 6 4 4 6 7 7 6 6 7 7 9
20 19 20 22 22 25 24 17 5 2 1 1 1 1 3 3 2 1 2 3 1 5 2 2 2 3 4 1 3 2 2 0 6 2 1 4 2 2 0 1 2 2 2 3 4 2 3 3 2 4 4 5 5 2 2 9 3 2 3 5 5 2 2 1 2 3 7 2 4 1 1 3 3 4 6 2 3 7 3 5 9 8 6 5 8 11 9 9
20 20 21 21 22 25 21 2 2 2 1 2 2 1 2 2 0 3 5 3 3 4 2 1 1 1 1 1 1 2 4 1 4 4 3 4 5 2 1 0 1 0 2 2 1 1 2 1 0 2 5 3 2 2 3 3 5 3 3 5 4 5 3 3 1 3 1 1 2 1 4 3 4 4 5 3 4 6 2 6 9 7 7 7 9 9 9 11
20 19 21 20 19 23 6 0 3 3 2 1 2 5 4 4 1 2 1 4 2 2 1 1 1 1 0 0 4 2 1 3 3 1 1 1 3 1 1 3 1 1 1 1 4 1 0 1 5 5 5 3 2 0 3 7 7 1 2 5 4 4 4 4 4 3 1 1 1 5 3 2 2 5 3 3 5 5 6 9 10 9 7 9 9 9 10 11
19 19 20 19 18 12 2 3 7 3 3 0 3 5 5 4 0 3 3 2 1 1 1 1 1 1 0 1 5 3 2 1 1 1 0 0 2 2 1 3 4 4 1 2 2 3 1 1 1 2 2 2 2 4 5 5 3 3 2 7 4 2 2 4 3 3 0 1 4 2 2 0 3 4 4 1 4 7 10 11 12 12 10 9 10 10 11 11
19 20 20 17 20 9 2 1 1 4 1 3 4 5 5 2 4 5 3 1 0 0 1 2 3 0 1 1 1 1 1 0 1 1 2 2 3 2 1 3 4 3 1 2 6 2 3 4 3 4 2 3 4 2 7 8 1 1 6 7 6 5 6 2 2 4 0 2 4 4 1 2 6 5 2 2 2 8 10 13 14 13 11 10 10 10 11 9
19 19 19 17 13 1 2 1 5 5 3 5 5 5 1 2 2 1 3 3 1 0 1 1 1 2 1 3 1 1 2 2 1 2 2 2 3 3 1 3 3 1 1 2 1 7 2 5 3 2 4 4 2 0 3 4 1 4 5 4 4 8 4 2 6 2 3 1 5 3 1 3 3 4 6 6 8 9 10 7 7 8 9 10 10 11 11 10
18 18 16 13 3 2 2 5 6 1 3 4 5 2 2 7 3 4 1 3 1 2 1 1 1 3 2 3 2 2 0 1 1 1 1 1 2 3 0 0 6 4 2 3 3 5 4 1 1 2 3 3 3 3 4 2 2 5 2 2 2 1 7 3 4 5 1 4 4 2 1 2 4 4 4 9 6 4 6 8 9 10 11 13 12 12 11 8
16 18 17 8 5 2 3 2 1 1 3 4 3 4 3 1 3 3 4 3 1 2 1 2 1 1 1 1 3 1 3 1 1 2 4 2 2 2 2 4 2 1 3 1 2 4 2 3 1 6 3 8 2 4 1 5 3 4 5 6 3 2 4 2 3 2 3 4 0 1 1 1 4 8 7 5 9 10 7 8 10 10 10 10 10 11 6 4
17 18 21 12 6 3 7 5 2 3 3 3 3 3 3 3 2 4 2 2 1 0 0 1 1 1 0 1 2 2 1 4 2 0 2 0 2 4 3 2 5 3 3 2 0 3 6 4 3 2 2 1 6 6 1 1 1 4 4 4 4 1 1 2 3 1 5 5 3 1 1 2 4 8 6 9 10 6 5 6 6 5 7 8 7 3 2 5
18 17 10 4 6 9 4 1 1 2 3 2 2 5 7 3 3 4 1 2 0 1 1 1 4 1 3 4 2 1 2 2 2 2 1 1 1 2 2 1 4 2 1 2 1 2 1 5 4 2 1 0 3 7 10 6 6 4 2 6 6 7 3 2 3 3 4 5 2 3 1 4 1 3 1 6 7 8 6 5 4 5 7 7 6 4 4 5
22 16 7 5 4 10 14 6 1 3 4 4 6 4 4 6 2 2 2 2 2 1 0 0 1 1 2 1 2 1 2 0 0 1 1 3 4 2 3 3 2 5 2 3 2 2 3 5 7 3 1 4 4 1 5 6 5 0 2 5 5 4 6 2 3 3 1 1 1 1 4 3 4 3 6 4 6 6 4 3 2 6 5 5 6 7 6 5
13 4 2 3 3 4 6 7 4 3 5 4 4 1 5 7 1 2 0 2 0 1 5 3 2 0 2 2 2 2 3 1 2 1 0 2 3 2 2 3 5 10 7 5 4 2 2 2 2 7 2 1 1 4 0 3 2 2 2 3 3 2 9 6 1 1 0 3 4 0 6 6 7 6 3 6 4 6 5 4 3 5 4 3 7 7 6 6
5 7 1 2 3 3 6 8 7 6 5 6 4 4 7 3 5 5 3 1 1 1 2 1 3 2 1 2 1 2 1 2 0 1 4 1 3 5 2 3 5 4 7 8 2 4 5 5 3 1 0 2 1 1 3 3 4 7 1 5 2 2 5 4 2 2 3 2 5 1 4 6 4 4 5 6 3 7 6 5 3 4 4 5 8 6 7 8
7 3 4 5 6 7 8 9 8 5 5 4 5 7 0 1 2 3 1 2 1 2 2 2 4 3 2 1 1 0 2 2 3 2 1 1 2 2 2 1 1 2 3 1 2 2 3 2 4 1 1 4 4 1 4 2 2 4 2 5 2 1 0 3 4 0 0 2 3 2 1 4 4 5 4 4 4 6 7 4 1 5 5 8 8 9 6 5
4 2 4 3 1 9 9 9 4 5 3 3 4 1 3 5 1 2 5 4 2 3 2 4 3 1 2 1 2 1 1 1 0 1 1 1 1 1 0 2 1 3 2 8 2 1 1 2 5 2 1 1 2 4 4 2 3 4 4 3 1 3 3 3 5 3 4 3 2 5 2 4 6 6 5 7 6 8 7 6 6 6 9 9 8 8 6 6
2 1 4 1 5 6 8 4 5 3 3 6 4 4 1 1 3 3 3 3 1 3 3 1 2 1 1 4 3 1 1 1 3 1 1 1 1 2 0 2 0 2 5 2 2 2 2 1 2 2 3 1 1 1 6 8 5 1 1 1 1 1 2 4 1 2 3 4 4 2 3 5 7 7 6 8 8 9 8 8 7 7 7 7 8 8 7 6
2 0 3 0 6 7 4 4 2 4 4 1 1 2 1 1 0 1 3 3 0 2 4 3 3 3 3 1 3 1 1 2 1 2 3 1 3 2 2 2 1 1 1 3 2 1 2 1 6 3 2 2 6 4 3 5 6 8 9 7 8 6 3 1 7 2 1 3 3 3 8 7 10 3 8 9 9 7 8 8 7 7 8 8 7 7 8 7
1 1 3 1 6 5 5 5 1 1 2 4 5 3 1 1 1 2 1 0 2 1 2 1 2 3 2 4 4 3 3 3 3 1 2 4 2 3 2 2 3 1 1 0 0 3 2 3 2 2 6 6 7 1 1 1 2 2 5 4 5 3 6 5 2 5 1 2 4 4 0 8 8 6 8 9 6 4 3 2 7 8 8 8 9 8 7 9
2 4 3 1 5 1 2 3 1 0 2 4 2 1 1 0 2 2 0 1 1 1 0 1 4 3 4 4 1 3 4 3 6 5 3 4 3 8 5 5 5 6 3 0 2 0 3 1 1 4 6 6 4 2 2 2 2 1 1 3 4 3 6 8 6 5 5 1 0 1 2 6 5 1 4 5 4 4 5 4 7 9 9 9 9 9 8 7
2 2 2 2 1 1 3 7 5 5 4 3 1 2 1 2 2 0 2 2 3 0 2 1 2 4 2 2 2 3 4 1 3 2 1 2 1 2 5 3 5 1 2 1 1 2 1 2 3 1 2 6 6 3 2 2 2 2 1 2 2 3 4 3 5 1 1 6 7 5 8 4 4 2 3 1 3 4 6 7 7 8 9 9 9 8 6 6
3 2 2 4 1 2 5 4 5 4 4 2 2 2 0 0 5 5 4 2 1 1 1 2 4 2 1 1 1 0 2 4 0 2 1 3 3 0 2 2 1 3 2 4 3 4 1 3 3 2 4 4 3 1 4 5 5 2 0 0 2 6 7 3 1 1 3 3 4 3 5 8 9 6 5 5 3 6 7 6 5 8 9 9 8 8 8 6
2 3 2 1 1 3 2 0 2 3 2 3 1 4 2 1 2 2 6 3 1 1 2 1 2 1 1 0 0 0 2 1 2 1 2 1 2 1 3 5 1 1 3 3 3 3 1 1 2 5 6 7 8 6 3 2 1 1 2 2 4 1 1 3 4 5 7 4 5 6 7 6 4 3 4 7 4 5 8 6 6 7 9 9 7 8 8 8
4 2 2 3 2 4 4 1 2 2 3 3 2 2 3 4 2 2 4 1 1 1 0 2 2 2 2 3 1 1 0 1 3 1 2 2 2 2 4 1 2 6 3 4 2 4 2 1 4 4 5 7 7 6 3 3 3 3 2 3 1 0 3 4 5 7 4 3 9 4 6 4 8 7 8 9 9 7 8 9 9 8 8 9 9 8 8 7
1 4 1 3 3 4 6 6 4 2 3 3 4 1 4 3 1 2 1 1 0 1 2 1 6 2 0 0 1 0 2 1 0 1 1 0 1 3 1 4 3 6 1 1 2 2 4 2 2 3 5 5 4 6 3 1 4 4 4 3 3 4 4 6 6 6 6 5 11 5 8 8 6 8 11 12 10 10 9 11 10 7 5 5 5 7 9 10
3 4 3 2 1 3 7 4 11 12 9 7 2 3 4 3 3 3 1 0 2 1 2 1 2 3 1 1 1 0 0 2 2 1 1 0 1 0 1 2 1 5 2 2 2 2 3 1 1 1 2 3 4 4 2 4 2 1 4 6 6 4 7 10 7 3 8 8 8 7 8 12 8 9 11 11 10 9 8 4 4 5 7 9 8 9 10 10
3 2 4 2 1 0 0 1 4 6 9 7 6 5 3 3 3 0 0 2 1 1 2 3 1 2 1 2 1 1 3 3 4 5 2 2 1 1 2 3 1 1 3 1 1 0 2 3 4 2 1 2 4 4 1 3 2 4 3 2 4 6 6 3 2 4 3 8 8 13 13 14 8 11 14 10 7 5 5 9 12 10 8 8 9 10 10 11
3 1 2 3 2 2 1 2 2 5 5 3 7 4 2 5 5 3 1 0 2 3 1 2 2 1 1 3 3 1 2 3 4 6 5 3 2 4 3 3 2 1 2 1 1 1 1 2 2 1 1 3 3 2 7 4 4 5 2 2 4 6 6 3 6 6 5 12 13 9 9 10 9 9 9 8 9 8 11 12 11 11 10 10 9 11 11 11
1 3 1 2 2 1 2 1 1 3 5 4 5 5 4 6 4 7 2 2 2 4 4 3 4 1 1 2 1 1 4 3 5 5 4 7 4 3 2 1 5 2 2 1 0 3 3 4 2 1 2 4 6 2 4 4 6 7 4 7 11 9 7 5 7 7 10 9 11 10 15 10 6 0 3 5 7 10 9 9 11 12 11 9 11 12 12 11
Wind_Direction
333 335 340 341 339 335 335 338 338 338 334 331 330 328 326 325 323 321 322 321 318 317 319 319 320 324 326 330 337 353 350 21 6 323 17 244 214 176 111 101 101 126 103 64 26 68 353 13 11 343 48 65 329 54 252 55 158 56 78 112 82 205 122 209 180 192 227 160 239 191 223 118 114 115 162 72 42 66 66 57 73 82 75 107 111 114 121 134
331 337 340 338 336 336 337 337 337 335 334 330 326 324 322 321 321 320 318 318 318 315 315 317 316 320 326 329 338 3 350 65 23 301 234 235 99 145 113 103 129 128 80 43 73 93 75 347 350 29 45 53 326 7 359 220 75 108 129 93 214 190 234 163 219 205 134 242 214 156 168 191 175 123 192 79 49 96 78 75 104 114 114 110 119 124 129 138
334 339 339 337 337 338 337 335 334 333 332 328 324 322 322 318 318 318 318 318 315 315 313 310 313 316 323 329 344 17 3 0 75 24 317 129 164 125 115 132 117 74 96 147 212 111 100 179 277 78 12 85 357 242 30 263 160 227 117 263 247 206 236 222 238 217 205 175 162 137 159 113 155 96 97 121 154 150 156 143 133 149 148 144 135 137 141 148
337 339 337 335 336 337 335 332 332 333 331 329 324 323 320 319 315 317 317 316 314 311 309 308 308 311 322 328 349 328 118 51 43 277 266 225 151 136 133 109 93 86 71 64 154 105 111 81 53 81 51 67 304 33 43 267 86 265 89 196 220 194 105 268 237 237 214 132 150 134 114 98 156 94 104 143 112 242 227 243 198 167 163 156 148 149 151 156
337 336 334 335 335 333 332 331 330 330 329 325 323 320 319 314 314 313 313 312 311 309 307 305 308 312 313 357 340 250 38 55 286 236 251 165 161 140 123 113 102 71 99 147 74 44 61 72 68 32 77 206 332 10 258 313 191 109 205 212 172 151 200 269 243 246 98 204 130 134 142 187 149 50 109 157 165 222 207 208 233 163 158 154 153 161 156 162
337 335 335 334 334 332 331 329 327 325 325 320 319 316 314 314 310 310 308 307 307 309 309 310 310 314 321 22 7 57 74 73 246 271 169 176 164 129 120 116 114 96 88 45 93 48 73 14 59 41 12 72 222 120 261 183 154 255 301 222 207 207 195 237 216 245 139 149 144 153 171 112 103 85 122 173 224 252 262 145 187 149 153 146 141 154 160 165
337 334 333 332 330 330 329 326 323 321 317 318 316 314 312 311 307 307 305 303 303 305 310 312 313 319 326 45 141 76 101 265 316 256 161 175 152 116 114 106 94 81 74 75 31 75 57 87 77 193 98 56 257 191 268 187 328 154 255 322 287 188 213 219 223 172 159 156 175 147 143 136 130 140 99 220 290 277 238 132 148 139 130 137 146 162 163 165
336 334 329 330 330 330 327 323 320 317 316 316 316 308 305 305 306 302 300 299 300 301 306 311 314 322 342 319 44 355 49 320 261 266 180 100 95 109 98 77 100 91 81 178 141 103 120 109 143 158 73 109 226 128 298 18 8 177 273 259 277 151 253 252 232 100 129 122 115 118 127 115 150 158 91 263 305 296 152 128 139 139 131 135 152 158 158 174
335 331 329 331 330 328 323 321 318 317 314 312 307 302 304 303 300 298 297 298 298 297 298 308 316 327 316 33 96 38 333 240 217 113 119 105 100 103 124 91 109 124 149 130 192 201 146 253 121 182 287 343 135 329 309 143 323 201 230 222 286 287 329 216 88 115 131 125 128 104 65 29 87 97 36 216 196 172 126 129 150 154 150 159 164 172 164 184
332 331 332 331 329 324 323 321 320 317 311 308 305 304 300 300 295 293 295 294 294 296 291 301 327 330 356 74 34 72 262 214 209 125 131 121 105 87 52 111 140 127 135 232 101 114 144 224 92 198 124 68 118 266 127 116 261 185 247 220 217 276 28 350 138 137 149 117 154 134 113 106 6 42 257 144 175 149 136 139 151 162 168 168 171 176 183 193
332 334 332 329 326 324 325 323 318 313 311 307 305 303 299 294 291 289 288 288 292 288 285 283 308 15 33 80 86 140 253 50 76 124 133 125 114 126 206 173 163 143 178 147 206 186 209 179 174 115 22 219 134 275 169 230 346 286 218 234 48 354 70 83 88 135 121 78 28 114 85 41 336 44 244 168 146 153 146 151 159 174 176 176 179 177 186 201
334 334 331 328 327 326 325 321 316 314 312 310 305 300 294 292 289 285 281 280 285 282 284 240 184 128 77 70 137 209 163 225 91 128 140 129 163 199 189 179 168 175 153 272 249 224 196 193 130 74 293 200 285 321 265 246 23 299 35 10 340 28 60 184 144 193 131 134 116 120 73 330 251 219 317 147 147 155 156 157 169 177 182 181 185 193 191 211
334 334 331 329 326 325 324 319 319 315 312 308 304 304 302 292 283 280 275 282 276 278 243 171 131 100 88 7 235 233 263 242 73 110 107 165 192 193 181 166 182 176 184 208 263 222 201 162 146 30 221 122 251 267 228 46 320 10 50 47 6 14 16 233 334 23 44 133 151 137 172 246 232 300 227 131 152 156 160 175 184 187 182 189 197 203 203 215
334 333 332 329 325 324 322 321 319 317 314 309 310 308 305 299 287 276 267 251 249 241 165 151 124 86 77 250 267 248 255 287 85 105 205 155 135 282 135 200 198 205 220 226 257 187 166 186 152 203 120 176 275 286 8 335 14 139 308 64 63 36 250 210 109 151 81 275 171 17 218 273 244 262 151 158 157 164 174 186 192 195 195 196 200 209 214 220
334 334 331 328 326 324 323 322 320 317 315 313 311 312 312 300 292 280 255 238 235 232 155 96 31 71 31 278 257 287 247 87 93 238 177 141 163 336 302 75 190 222 215 208 238 172 178 123 143 38 275 5 42 34 337 6 2 19 64 300 331 75 278 297 255 170 150 212 197 76 261 232 259 213 169 157 172 170 183 192 197 201 213 225 216 218 220 213
333 333 330 327 327 324 323 323 321 318 322 317 314 316 312 306 302 276 186 183 169 126 122 58 353 95 100 323 227 356 58 27 311 273 253 146 148 215 241 336 294 350 12 269 296 99 75 105 62 194 275 11 45 88 17 26 342 3 70 256 332 101 221 326 71 209 296 146 206 188 206 346 285 184 157 158 178 180 184 199 203 197 234 253 245 244 245 226
334 332 329 329 327 324 324 324 322 323 323 320 322 319 319 308 182 93 127 96 95 130 132 172 162 127 23 242 303 13 287 275 287 335 31 204 160 190 31 4 331 340 352 348 28 132 348 69 311 27 37 100 134 90 54 20 336 318 25 57 246 16 356 5 301 98 219 158 196 224 149 227 292 183 172 171 164 158 164 244 216 217 227 240 250 250 247 246
331 330 330 328 327 326 324 324 324 324 325 319 319 294 296 96 123 101 59 43 90 145 259 205 118 44 299 360 318 253 275 292 316 284 175 277 163 119 142 341 301 11 31 3 350 69 334 265 35 187 6 357 27 41 94 218 214 270 346 25 326 324 198 215 126 253 130 230 182 182 264 291 320 164 186 162 182 168 220 228 248 242 244 253 257 255 253 242
331 331 329 329 327 325 326 324 325 325 329 320 317 62 98 120 192 335 100 89 60 347 24 311 60 120 192 207 278 303 270 218 248 94 268 107 85 126 89 101 57 342 321 55 285 53 358 58 23 36 322 330 27 141 152 223 156 245 166 190 203 327 296 240 237 285 154 106 143 175 204 185 200 185 182 183 190 210 227 247 252 251 246 245 250 254 245 230
332 330 329 329 328 326 326 325 323 324 341 341 13 15 12 14 5 336 336 21 162 199 244 217 198 261 298 277 267 250 295 41 336 280 319 308 110 100 80 74 1 53 71 320 304 40 80 92 195 215 223 222 236 187 197 196 150 103 110 134 255 52 287 278 3 52 57 89 121 201 125 183 222 205 179 182 187 214 230 235 243 246 243 242 249 250 252 247
330 331 332 330 328 327 326 325 325 322 339 43 313 54 58 60 46 320 319 282 256 244 232 246 197 197 231 299 288 23 28 317 67 279 193 87 107 135 270 31 25 17 314 241 181 299 69 47 276 224 219 207 195 200 175 80 75 141 130 87 358 201 337 328 342 351 330 160 341 348 175 264 11 176 181 179 193 216 222 235 244 247 249 249 251 259 256 260
332 334 334 332 327 327 327 325 324 323 325 204 55 89 115 143 209 209 85 324 309 217 217 245 349 272 307 263 221 130 109 328 323 291 293 131 310 89 305 89 89 318 319 337 19 23 35 199 245 236 173 127 84 69 49 108 91 47 124 133 75 274 247 288 321 357 340 86 298 115 128 307 297 204 187 198 208 229 220 225 237 238 254 257 251 253 264 277
334 336 335 332 329 323 329 323 322 320 8 34 52 66 87 307 334 281 156 250 270 250 204 189 221 241 278 281 249 116 109 190 249 302 206 104 11 193 153 78 32 264 359 17 104 62 31 290 258 288 137 117 76 46 74 62 56 94 63 62 162 240 81 309 316 28 4 134 164 140 96 336 9 176 204 204 217 231 219 213 231 225 244 250 251 251 258 260
335 336 334 333 328 325 324 324 310 11 38 351 74 129 317 345 310 28 119 226 297 313 205 216 171 185 219 186 203 125 150 259 110 286 271 127 147 172 99 154 88 42 332 135 135 155 189 239 110 75 102 131 111 45 87 79 68 345 111 124 146 52 203 149 272 347 329 30 87 96 51 336 264 210 230 225 195 226 243 239 245 245 239 250 269 263 241 248
334 334 335 334 332 325 324 321 43 344 276 65 205 212 350 307 306 260 113 338 5 287 254 310 188 232 227 8 94 142 234 18 215 227 234 111 139 67 234 199 114 239 208 147 107 50 312 279 135 72 56 57 94 76 210 122 86 331 240 174 188 190 136 253 336 44 20 359 19 86 38 295 293 285 249 224 186 231 213 219 241 241 246 246 250 253 261 257
333 332 335 337 333 328 315 358 348 4 356 169 154 306 286 293 306 183 98 76 310 268 338 231 167 319 133 186 102 137 69 279 225 214 173 210 151 146 100 41 118 208 247 171 214 195 194 352 50 150 117 99 78 149 216 112 153 97 227 178 189 164 127 114 85 85 24 156 305 64 145 258 329 270 237 206 236 246 257 233 250 245 242 236 244 249 253 256
332 331 334 337 335 338 13 15 301 286 13 305 340 333 333 314 282 159 5 346 3 256 154 260 62 258 285 228 133 82 59 267 302 91 100 246 157 334 128 269 351 338 109 146 45 236 45 326 54 51 82 89 91 326 216 139 117 224 240 132 116 124 145 201 133 146 192 250 269 51 98 180 304 287 295 260 220 253 260 253 253 248 237 238 241 245 247 252
328 328 332 334 332 345 202 321 345 2 237 295 336 335 317 302 92 45 79 27 309 274 120 265 218 348 102 302 125 143 198 227 34 247 56 249 102 3 92 218 180 203 189 78 205 255 163 344 96 60 79 99 186 211 175 142 120 220 171 140 150 198 210 137 116 127 114 134 268 330 3 44 249 263 307 290 226 255 249 249 253 251 242 237 240 243 246 248
325 324 328 332 327 337 151 159 47 252 252 319 326 334 319 19 100 102 112 103 218 87 27 88 302 32 344 48 131 28 340 352 121 258 311 36 37 148 104 241 165 167 69 132 186 273 272 198 206 144 140 256 234 236 164 144 99 246 124 81 80 65 62 69 100 111 25 79 267 249 219 208 278 285 354 357 264 261 251 243 242 243 246 243 241 242 243 248
321 318 324 331 330 78 335 112 219 241 336 332 326 321 10 55 36 41 28 252 334 318 78 247 108 224 65 116 292 2 212 303 197 324 37 154 333 38 66 131 127 96 173 4 183 215 267 318 185 128 190 210 168 176 170 171 79 109 82 65 9 40 18 16 63 78 63 332 257 240 274 168 292 257 193 147 212 206 234 266 260 252 248 248 243 242 236 235
317 312 317 330 303 278 311 316 259 275 299 325 319 14 68 40 116 102 154 227 16 257 338 1 244 7 118 152 224 312 53 322 313 127 245 329 311 38 66 3 38 52 30 359 289 326 352 13 141 243 94 117 111 74 37 29 63 108 106 119 71 343 7 28 341 33 114 273 263 279 208 130 190 295 273 237 258 230 206 228 244 245 238 237 236 240 239 231
312 310 308 311 233 327 198 227 239 32 342 323 22 58 74 258 7 138 213 310 113 281 78 296 8 75 348 338 123 210 177 327 254 124 181 194 165 157 191 170 167 19 345 336 260 353 323 211 274 321 223 139 111 90 316 24 13 82 83 45 90 272 38 277 8 274 218 200 272 348 55 7 245 223 248 277 249 252 215 220 229 236 247 244 243 243 256 236
311 308 306 288 238 204 245 248 357 342 359 26 65 52 71 95 225 257 274 323 237 220 320 158 245 329 259 69 274 240 271 186 286 267 120 328 178 274 257 185 191 167 227 250 323 21 280 290 339 263 15 185 124 133 198 64 5 111 124 126 79 53 32 257 279 238 310 287 265 286 313 249 253 292 240 245 259 256 273 252 262 269 258 263 262 277 241 227
310 309 306 246 203 221 240 266 249 21 36 42 73 45 58 90 241 220 249 242 243 345 337 39 329 18 161 181 238 159 204 276 136 239 122 225 43 274 312 303 138 72 79 147 204 195 357 341 299 140 229 312 159 169 177 172 159 211 129 132 182 148 160 243 207 222 218 210 286 282 57 236 77 241 220 230 261 284 272 267 254 245 249 254 263 253 220 221
312 297 261 283 249 243 235 215 164 78 82 67 60 90 139 233 222 193 231 298 288 307 259 306 252 36 318 322 291 248 174 78 49 116 57 130 251 173 203 227 251 111 146 134 261 70 205 211 257 243 71 134 175 190 128 101 58 315 167 95 88 233 146 224 209 157 249 271 335 203 216 187 189 255 282 286 292 293 299 303 296 269 269 265 266 250 230 221
315 300 154 257 217 264 182 189 156 112 107 72 87 128 191 192 209 180 155 175 32 21 300 360 85 122 255 304 311 97 343 167 299 102 326 164 204 203 229 208 177 184 137 173 190 172 24 296 270 314 94 166 185 135 240 128 204 251 106 202 209 148 100 89 76 23 34 46 259 171 321 290 304 323 305 333 344 293 317 319 346 291 274 248 242 243 234 224
328 320 348 248 248 186 144 148 147 128 78 104 105 224 206 265 200 165 240 133 197 119 61 52 292 156 247 242 242 335 303 55 284 100 257 230 308 198 240 267 177 186 198 142 280 185 140 240 295 88 191 1 275 144 98 46 144 90 164 233 170 130 119 127 201 346 53 180 259 45 230 289 39 276 321 343 341 289 294 284 290 290 293 256 246 239 231 227
321 302 248 262 234 139 138 151 135 69 90 110 198 221 204 226 201 163 186 103 54 32 101 128 267 97 273 133 300 250 306 118 285 47 233 168 245 189 142 212 133 174 220 40 176 282 127 312 295 283 284 277 354 169 25 357 30 148 197 177 110 266 248 327 92 315 194 260 273 312 293 265 183 249 333 297 266 281 280 286 265 256 252 241 248 246 236 236
279 319 326 253 87 143 142 158 81 97 70 159 228 238 245 224 196 194 201 141 143 128 142 236 178 284 139 163 233 314 299 235 252 140 112 253 125 209 169 175 146 192 189 138 129 175 47 179 293 303 137 292 5 76 216 263 352 28 93 74 329 106 162 138 195 178 126 252 63 289 39 241 208 220 202 248 243 245 268 296 273 238 220 232 237 246 238 219
302 355 264 293 123 126 152 121 70 58 86 192 221 224 221 221 244 253 215 154 211 130 225 160 198 236 245 224 157 207 296 162 153 220 121 266 223 286 353 14 163 340 113 138 140 170 137 126 235 277 287 326 202 174 209 169 146 48 82 309 356 32 213 98 42 134 187 179 185 211 298 273 256 213 186 227 229 230 218 240 251 259 250 229 235 237 240 229
294 177 265 138 128 141 120 53 111 182 189 265 151 221 329 218 295 295 274 229 246 264 172 174 162 176 206 59 286 227 195 170 181 156 194 259 174 277 264 198 238 51 74 46 79 133 90 124 201 312 20 216 234 248 204 185 178 169 164 198 171 121 143 212 260 24 104 125 219 146 241 264 270 182 207 219 236 227 229 218 238 257 260 258 239 233 226 232
300 206 274 103 147 157 106 147 219 122 122 166 217 169 235 208 56 275 313 9 176 238 15 175 211 191 167 205 193 199 149 180 218 136 250 181 242 152 239 172 188 175 108 242 167 228 145 154 98 193 198 210 225 215 198 176 130 172 153 227 166 133 108 105 178 265 23 258 120 170 201 270 241 205 205 218 232 250 297 282 268 266 265 262 256 241 230 224
167 217 257 171 173 147 89 192 293 113 180 225 301 246 203 8 163 234 172 279 269 187 128 173 204 157 246 192 195 185 174 219 164 202 194 184 241 208 230 196 148 66 79 323 31 252 120 78 141 287 306 302 317 314 86 98 126 79 16 75 116 174 179 177 182 183 156 132 268 291 217 251 288 227 242 256 272 273 264 225 243 271 278 277 261 255 245 234
196 233 312 30 158 286 174 205 196 224 240 295 163 241 265 182 169 324 239 259 175 208 190 210 325 203 264 171 133 205 193 166 230 165 295 210 222 217 200 201 187 96 109 232 116 235 85 287 132 37 2 343 340 344 12 336 61 150 186 225 170 98 77 128 105 65 207 212 185 154 246 279 271 317 293 264 274 266 253 239 212 247 268 268 271 266 260 254
306 275 233 291 4 190 212 193 169 178 212 197 161 238 101 312 198 200 176 235 259 205 84 265 206 151 220 173 178 97 213 181 330 248 150 175 236 36 319 51 163 136 194 207 163 133 122 196 116 180 211 241 256 230 262 280 234 237 182 236 233 148 144 121 208 106 199 275 154 179 259 248 273 313 314 308 309 291 272 243 233 223 240 255 267 271 263 249
218 223 302 269 3 197 256 142 135 146 150 151 251 252 166 194 300 234 171 248 191 237 211 250 346 104 46 42 358 267 231 332 183 231 158 258 274 313 137 313 355 179 235 150 146 103 151 108 155 166 171 201 207 221 246 115 42 192 266 172 210 100 93 96 102 112 209 215 190 232 213 272 298 292 297 277 279 249 271 280 243 233 236 242 251 261 262 252
308 246 171 215 332 235 227 141 198 124 206 173 178 193 198 188 228 342 158 177 169 155 358 55 353 43 326 57 338 333 262 353 0 91 223 177 257 245 313 60 80 37 54 98 65 85 81 179 244 173 204 209 202 217 209 157 231 238 213 258 222 96 153 145 163 219 178 94 269 245 214 211 242 249 253 262 268 272 262 261 274 271 250 226 227 241 264 271
200 250 142 213 158 215 195 260 165 164 245 158 226 141 206 155 143 165 336 152 121 92 128 335 40 62 278 234 129 87 328 16 103 210 343 278 358 330 4 353 49 312 359 65 13 133 142 180 261 128 244 229 221 236 204 183 202 204 188 190 219 183 161 197 228 209 139 193 249 237 210 219 242 232 237 238 236 237 239 242 240 253 283 281 254 238 241 244
222 301 265 299 210 241 196 197 180 202 199 187 230 180 194 165 188 207 163 358 35 357 70 150 318 318 329 297 107 236 156 34 317 282 194 216 209 29 1 340 264 1 60 67 30 149 91 252 193 151 299 323 283 239 246 208 254 194 205 212 215 183 216 224 242 191 191 233 244 252 235 231 229 244 240 240 234 234 250 292 321 269 242 237 231 232 231 237
248 226 271 356 83 262 237 99 171 179 209 199 209 229 185 189 215 164 289 126 64 40 26 92 260 290 126 126 134 139 228 190 216 266 256 171 285 135 217 192 168 341 28 142 137 327 134 266 155 148 87 281 282 318 221 205 197 256 265 274 223 227 255 265 250 243 228 271 258 254 258 262 246 243 256 260 266 283 305 278 262 256 256 246 238 238 237 234
285 306 276 291 240 254 91 100 134 170 189 247 211 236 165 202 213 164 169 108 145 161 118 187 219 257 131 116 122 228 267 246 264 243 224 168 248 233 155 278 158 132 351 71 60 356 57 246 54 79 254 295 285 266 268 270 232 223 239 222 241 239 260 230 234 215 195 250 263 262 267 268 261 240 254 262 266 260 253 256 260 258 245 240 238 241 240 240
312 270 212 239 232 284 183 91 69 105 230 211 186 203 198 208 150 145 111 340 106 132 166 180 222 127 301 27 353 309 307 291 254 245 210 211 217 215 201 200 170 153 196 129 279 150 162 132 177 162 241 245 261 208 278 308 327 272 193 214 223 225 220 245 248 236 222 232 258 268 256 250 267 249 221 257 238 249 252 250 256 260 255 235 230 234 238 239